{"data":{"norad_id":65061,"epoch":"2026-05-25T04:08:28.092768Z","epoch_age_seconds":63295,"freshness":"FRESH","line1":"1 65061U 25165F   26145.17254737 -.00000826  00000+0 -53220-4 0  9994","line2":"2 65061  97.4493 222.3218 0001606 173.0074 187.1176 15.05643668 46309","mean_motion":15.05643668,"eccentricity":0.0001606,"inclination_deg":97.4493,"raan_deg":222.3218,"arg_perigee_deg":173.0074,"mean_anomaly_deg":187.1176,"bstar":-5.322e-5,"rev_number":4630,"period_min":95.640159129604,"perigee_km":548.41799347657,"apogee_km":550.64316030227,"semimajor_km":6927.6675768894,"source":"CELESTRAK","updated_at":"2026-05-25T13:38:20.676925Z"}}